Location: Del Amo
(33.8464°N, 118.2104°W)
Time: 17:52:02
(UTC+00:00)

S-56A Canister/Altair - Pass Details

Date: 21 September 2024
Orbit: 636 x 2487 km, 38.9° (Epoch: 14 October)

Event Time Altitude Azimuth Distance (km) Brightness Sun altitude
Rises 06:38:16 0° 288° (WNW) 3,934 11.5 -52.2°
Enters shadow 06:40:11 - 283° (WNW) 3,347 11.0 -52.4°
Reaches altitude 10° 06:40:45 10° 281° (WNW) 3,185 - -52.4°
Maximum altitude 06:48:25 45° 212° (SSW) 2,072 - -53.1°
Drops below altitude 10° 06:59:36 10° 145° (SE) 4,586 - -54.0°
Sets 07:03:58 0° 140° (SE) 5,809 - -54.3°
